| time (UTC) | temp C | wind direction | speed KPH | gust KPH | rain 1hr cm | rain 24hr cm | rain mn cm | humidity % | barometer mb |
| 20260504140620 | 19 | 219 | 14.5 | 30.6 | 0.00 | 0.00 | 0.00 | 63 | 1012.4 |
| 20260504140602 | 19 | 210 | 12.9 | 25.7 | 0.00 | 0.00 | 0.00 | 63 | 1012.4 |
| 20260504130450 | 17 | 127 | 8.0 | 22.5 | 0.00 | 0.00 | 0.00 | 68 | 1012.5 |
| 20260504130145 | 17 | 179 | 8.0 | 17.7 | 0.00 | 0.00 | 0.00 | 68 | 1012.5 |
| 20260504090124 | 17 | 230 | 8.0 | 19.3 | 0.00 | 0.00 | 0.00 | 62 | 1012.5 |
| 20260504081903 | 18 | 156 | 9.7 | 19.3 | 0.00 | 0.00 | 0.00 | 58 | 1012.6 |
| 20260504081601 | 18 | 271 | 9.7 | 24.1 | 0.00 | 0.00 | 0.00 | 58 | 1012.6 |
| 20260504080811 | 18 | 230 | 9.7 | 24.1 | 0.00 | 0.00 | 0.00 | 58 | 1012.6 |
| 20260504080309 | 18 | 250 | 9.7 | 20.9 | 0.00 | 0.00 | 0.00 | 57 | 1012.7 |
| 20260504050452 | 20 | 151 | 4.8 | 11.3 | 0.00 | 0.00 | 0.00 | 51 | 1014.5 |
| 20260504045949 | 20 | 155 | 4.8 | 11.3 | 0.00 | 0.00 | 0.00 | 51 | 1014.5 |
| 20260504045449 | 20 | 227 | 4.8 | 14.5 | 0.00 | 0.00 | 0.00 | 51 | 1014.6 |
| 20260504044924 | 20 | 132 | 4.8 | 14.5 | 0.00 | 0.00 | 0.00 | 50 | 1014.6 |
| 20260504044357 | 20 | 205 | 4.8 | 12.9 | 0.00 | 0.00 | 0.00 | 50 | 1014.6 |
| 20260504043853 | 20 | 271 | 4.8 | 12.9 | 0.00 | 0.00 | 0.00 | 50 | 1014.7 |
| 20260504043327 | 20 | 206 | 6.4 | 12.9 | 0.00 | 0.00 | 0.00 | 49 | 1014.6 |
| 20260504042825 | 20 | 250 | 6.4 | 16.1 | 0.00 | 0.00 | 0.00 | 49 | 1014.7 |
| 20260504042323 | 20 | 144 | 4.8 | 16.1 | 0.00 | 0.00 | 0.00 | 49 | 1014.7 |
| 20260504041822 | 20 | 217 | 4.8 | 11.3 | 0.00 | 0.00 | 0.00 | 49 | 1014.6 |
| 20260504041322 | 20 | 131 | 3.2 | 12.9 | 0.00 | 0.00 | 0.00 | 49 | 1014.7 |
| 20260504040823 | 20 | 211 | 4.8 | 12.9 | 0.00 | 0.00 | 0.00 | 49 | 1014.7 |
| 20260504040525 | 20 | 169 | 4.8 | 14.5 | 0.00 | 0.00 | 0.00 | 48 | 1014.7 |
| 20260504035733 | 20 | 210 | 4.8 | 14.5 | 0.00 | 0.00 | 0.00 | 48 | 1014.7 |
| 20260504035229 | 20 | 122 | 3.2 | 12.9 | 0.00 | 0.00 | 0.00 | 48 | 1014.7 |
| 20260504034730 | 20 | 181 | 4.8 | 12.9 | 0.00 | 0.00 | 0.00 | 48 | 1014.7 |
| 20260504034212 | 20 | 192 | 3.2 | 9.7 | 0.00 | 0.00 | 0.00 | 47 | 1014.7 |
| 20260504033716 | 20 | 133 | 1.6 | 8.0 | 0.00 | 0.00 | 0.00 | 47 | 1014.7 |
| 20260504033200 | 20 | 190 | 3.2 | 9.7 | 0.00 | 0.00 | 0.00 | 47 | 1014.7 |
| 20260504032701 | 20 | 158 | 3.2 | 9.7 | 0.00 | 0.00 | 0.00 | 46 | 1014.6 |
| 20260504032200 | 21 | 174 | 3.2 | 11.3 | 0.00 | 0.00 | 0.00 | 46 | 1014.6 |
| 20260504031702 | 21 | 235 | 3.2 | 11.3 | 0.00 | 0.00 | 0.00 | 46 | 1014.6 |
| 20260504031143 | 21 | 184 | 3.2 | 11.3 | 0.00 | 0.00 | 0.00 | 45 | 1014.5 |
| 20260504030631 | 21 | 226 | 3.2 | 9.7 | 0.00 | 0.00 | 0.00 | 45 | 1014.4 |
| 20260504030129 | 21 | 124 | 3.2 | 9.7 | 0.00 | 0.00 | 0.00 | 44 | 1014.4 |
| 20260504025840 | 21 | 210 | 3.2 | 9.7 | 0.00 | 0.00 | 0.00 | 45 | 1014.5 |
| 20260504025119 | 21 | 217 | 3.2 | 6.4 | 0.00 | 0.00 | 0.00 | 44 | 1014.4 |
| 20260504024611 | 21 | 159 | 3.2 | 9.7 | 0.00 | 0.00 | 0.00 | 44 | 1014.5 |
| 20260504024108 | 21 | 151 | 3.2 | 9.7 | 0.00 | 0.00 | 0.00 | 44 | 1014.5 |
| 20260504023605 | 21 | 191 | 3.2 | 9.7 | 0.00 | 0.00 | 0.00 | 43 | 1014.5 |
| 20260504023105 | 21 | 198 | 3.2 | 9.7 | 0.00 | 0.00 | 0.00 | 43 | 1014.5 |
| 20260504022815 | 21 | 251 | 3.2 | 11.3 | 0.00 | 0.00 | 0.00 | 43 | 1014.5 |
| 20260504022053 | 22 | 229 | 4.8 | 12.9 | 0.00 | 0.00 | 0.00 | 42 | 1014.5 |
| 20260504021554 | 22 | 134 | 6.4 | 12.9 | 0.00 | 0.00 | 0.00 | 41 | 1014.4 |
| 20260504021033 | 22 | 149 | 6.4 | 12.9 | 0.00 | 0.00 | 0.00 | 41 | 1014.4 |
| 20260504020512 | 22 | 210 | 6.4 | 16.1 | 0.00 | 0.00 | 0.00 | 41 | 1014.3 |
| 20260504020012 | 22 | 200 | 6.4 | 16.1 | 0.00 | 0.00 | 0.00 | 40 | 1014.3 |
| 20260504015735 | 22 | 186 | 6.4 | 14.5 | 0.00 | 0.00 | 0.00 | 40 | 1014.3 |
| 20260504015226 | 22 | 208 | 6.4 | 11.3 | 0.00 | 0.00 | 0.00 | 39 | 1014.3 |
| 20260504014447 | 22 | 123 | 6.4 | 14.5 | 0.00 | 0.00 | 0.00 | 38 | 1014.3 |
| 20260504014147 | 23 | 179 | 6.4 | 16.1 | 0.00 | 0.00 | 0.00 | 38 | 1014.3 |
| 20260504013618 | 23 | 240 | 6.4 | 16.1 | 0.00 | 0.00 | 0.00 | 38 | 1014.2 |
| 20260504012831 | 23 | 94 | 6.4 | 16.1 | 0.00 | 0.00 | 0.00 | 37 | 1014.1 |
| 20260504012331 | 23 | 207 | 8.0 | 16.1 | 0.00 | 0.00 | 0.00 | 37 | 1014.1 |
| 20260504011825 | 23 | 256 | 8.0 | 16.1 | 0.00 | 0.00 | 0.00 | 37 | 1014.1 |
| 20260504011446 | 23 | 163 | 6.4 | 16.1 | 0.00 | 0.00 | 0.00 | 36 | 1014.1 |
| 20260504011323 | 23 | 130 | 6.4 | 16.1 | 0.00 | 0.00 | 0.00 | 36 | 1014.1 |
| 20260504010211 | 23 | 163 | 6.4 | 14.5 | 0.00 | 0.00 | 0.00 | 35 | 1014.1 |
| 20260504005646 | 23 | 250 | 8.0 | 17.7 | 0.00 | 0.00 | 0.00 | 34 | 1014.0 |
| 20260504005123 | 24 | 141 | 8.0 | 17.7 | 0.00 | 0.00 | 0.00 | 34 | 1014.1 |
| 20260504004842 | 24 | 236 | 8.0 | 17.7 | 0.00 | 0.00 | 0.00 | 33 | 1014.1 |
| 20260504004120 | 24 | 219 | 9.7 | 17.7 | 0.00 | 0.00 | 0.00 | 32 | 1014.1 |
| 20260504003623 | 24 | 212 | 8.0 | 17.7 | 0.00 | 0.00 | 0.00 | 32 | 1014.1 |
| 20260504003120 | 25 | 229 | 8.0 | 16.1 | 0.00 | 0.00 | 0.00 | 31 | 1014.1 |
| 20260504002620 | 25 | 169 | 8.0 | 24.1 | 0.00 | 0.00 | 0.00 | 31 | 1014.1 |
| 20260504002057 | 25 | 225 | 11.3 | 24.1 | 0.00 | 0.00 | 0.00 | 31 | 1014.0 |
| 20260504001752 | 25 | 134 | 11.3 | 24.1 | 0.00 | 0.00 | 0.00 | 31 | 1014.1 |
| 20260504001005 | 25 | 210 | 9.7 | 24.1 | 0.00 | 0.00 | 0.00 | 31 | 1014.2 |
| 20260504000440 | 25 | 162 | 9.7 | 20.9 | 0.00 | 0.00 | 0.00 | 31 | 1014.2 |
| 20260503235935 | 26 | 205 | 9.7 | 20.9 | 0.00 | 0.00 | 0.00 | 31 | 1014.2 |
| 20260503235436 | 26 | 137 | 9.7 | 17.7 | 0.00 | 0.00 | 0.00 | 31 | 1014.2 |
| 20260503235146 | 26 | 214 | 9.7 | 24.1 | 0.00 | 0.00 | 0.00 | 30 | 1014.2 |
| 20260503234646 | 26 | 227 | 9.7 | 24.1 | 0.00 | 0.00 | 0.00 | 31 | 1014.3 |
| 20260503234357 | 26 | 229 | 9.7 | 27.4 | 0.00 | 0.00 | 0.00 | 31 | 1014.3 |
| 20260503233411 | 26 | 186 | 9.7 | 27.4 | 0.00 | 0.00 | 0.00 | 30 | 1014.4 |
| 20260503232909 | 26 | 180 | 8.0 | 20.9 | 0.00 | 0.00 | 0.00 | 31 | 1014.4 |
| 20260503232406 | 26 | 203 | 9.7 | 20.9 | 0.00 | 0.00 | 0.00 | 30 | 1014.4 |
| 20260503231842 | 26 | 238 | 11.3 | 24.1 | 0.00 | 0.00 | 0.00 | 31 | 1014.4 |
| 20260503231315 | 26 | 148 | 11.3 | 24.1 | 0.00 | 0.00 | 0.00 | 30 | 1014.4 |
| 20260503230746 | 26 | 236 | 11.3 | 20.9 | 0.00 | 0.00 | 0.00 | 30 | 1014.3 |
| 20260503230507 | 26 | 154 | 11.3 | 19.3 | 0.00 | 0.00 | 0.00 | 30 | 1014.5 |
| 20260503225716 | 27 | 210 | 9.7 | 19.3 | 0.00 | 0.00 | 0.00 | 31 | 1014.5 |
| 20260503225214 | 27 | 205 | 9.7 | 22.5 | 0.00 | 0.00 | 0.00 | 30 | 1014.5 |
| 20260503225133 | 27 | 207 | 8.0 | 22.5 | 0.00 | 0.00 | 0.00 | 28 | 1014.5 |
| 20260503224145 | 27 | 234 | 8.0 | 17.7 | 0.00 | 0.00 | 0.00 | 28 | 1014.5 |
| 20260503223635 | 27 | 149 | 8.0 | 16.1 | 0.00 | 0.00 | 0.00 | 29 | 1014.6 |
| 20260503223136 | 27 | 212 | 8.0 | 19.3 | 0.00 | 0.00 | 0.00 | 30 | 1014.7 |
| 20260503222621 | 27 | 164 | 8.0 | 19.3 | 0.00 | 0.00 | 0.00 | 27 | 1014.7 |
| 20260503222057 | 27 | 233 | 8.0 | 20.9 | 0.00 | 0.00 | 0.00 | 27 | 1014.9 |
| 20260503221747 | 27 | 247 | 8.0 | 20.9 | 0.00 | 0.00 | 0.00 | 27 | 1014.8 |
| 20260503221026 | 27 | 212 | 8.0 | 17.7 | 0.00 | 0.00 | 0.00 | 26 | 1014.9 |
| 20260503220524 | 27 | 259 | 9.7 | 19.3 | 0.00 | 0.00 | 0.00 | 27 | 1014.9 |
| 20260503215429 | 27 | 167 | 11.3 | 22.5 | 0.00 | 0.00 | 0.00 | 26 | 1015.0 |
| 20260503214928 | 27 | 240 | 11.3 | 22.5 | 0.00 | 0.00 | 0.00 | 28 | 1015.0 |
| 20260503214641 | 27 | 249 | 11.3 | 20.9 | 0.00 | 0.00 | 0.00 | 27 | 1015.1 |
| 20260503213919 | 27 | 161 | 9.7 | 19.3 | 0.00 | 0.00 | 0.00 | 30 | 1015.1 |
| 20260503213611 | 27 | 234 | 9.7 | 17.7 | 0.00 | 0.00 | 0.00 | 30 | 1015.2 |
| 20260503212849 | 27 | 212 | 9.7 | 24.1 | 0.00 | 0.00 | 0.00 | 27 | 1015.2 |
| 20260503212321 | 27 | 252 | 9.7 | 24.1 | 0.00 | 0.00 | 0.00 | 28 | 1015.3 |
| 20260503211820 | 27 | 212 | 8.0 | 17.7 | 0.00 | 0.00 | 0.00 | 28 | 1015.4 |
| 20260503211511 | 27 | 243 | 9.7 | 17.7 | 0.00 | 0.00 | 0.00 | 27 | 1015.5 |
| 20260503210748 | 27 | 238 | 9.7 | 16.1 | 0.00 | 0.00 | 0.00 | 27 | 1015.6 |
| 20260503210507 | 27 | 235 | 8.0 | 19.3 | 0.00 | 0.00 | 0.00 | 26 | 1015.8 |
| 20260503205743 | 27 | 253 | 9.7 | 17.7 | 0.00 | 0.00 | 0.00 | 29 | 1015.7 |
| 20260503205505 | 27 | 214 | 6.4 | 17.7 | 0.00 | 0.00 | 0.00 | 27 | 1015.8 |
| 20260503204716 | 27 | 200 | 6.4 | 20.9 | 0.00 | 0.00 | 0.00 | 26 | 1015.9 |
| 20260503204145 | 27 | 148 | 8.0 | 20.9 | 0.00 | 0.00 | 0.00 | 26 | 1016.1 |
| 20260503203645 | 27 | 214 | 9.7 | 19.3 | 0.00 | 0.00 | 0.00 | 29 | 1016.2 |
| 20260503203132 | 27 | 223 | 9.7 | 22.5 | 0.00 | 0.00 | 0.00 | 26 | 1016.3 |
| 20260503202635 | 28 | 240 | 8.0 | 22.5 | 0.00 | 0.00 | 0.00 | 27 | 1016.4 |
| 20260503202125 | 28 | 219 | 6.4 | 17.7 | 0.00 | 0.00 | 0.00 | 26 | 1016.4 |
| 20260503201556 | 27 | 253 | 8.0 | 16.1 | 0.00 | 0.00 | 0.00 | 28 | 1016.5 |
| 20260503201033 | 27 | 231 | 8.0 | 17.7 | 0.00 | 0.00 | 0.00 | 26 | 1016.6 |
| 20260503200504 | 27 | 229 | 8.0 | 17.7 | 0.00 | 0.00 | 0.00 | 28 | 1016.7 |
| 20260503200002 | 27 | 251 | 8.0 | 20.9 | 0.00 | 0.00 | 0.00 | 29 | 1016.8 |
| 20260503195501 | 27 | 178 | 6.4 | 14.5 | 0.00 | 0.00 | 0.00 | 28 | 1016.9 |
| 20260503194934 | 27 | 272 | 8.0 | 17.7 | 0.00 | 0.00 | 0.00 | 27 | 1017.0 |
| 20260503194406 | 27 | 238 | 8.0 | 17.7 | 0.00 | 0.00 | 0.00 | 29 | 1017.0 |
| 20260503193902 | 27 | 182 | 8.0 | 16.1 | 0.00 | 0.00 | 0.00 | 29 | 1017.1 |
| 20260503193400 | 27 | 226 | 8.0 | 16.1 | 0.00 | 0.00 | 0.00 | 30 | 1017.2 |
| 20260503192859 | 27 | 227 | 6.4 | 16.1 | 0.00 | 0.00 | 0.00 | 30 | 1017.3 |
| 20260503192330 | 27 | 238 | 6.4 | 19.3 | 0.00 | 0.00 | 0.00 | 31 | 1017.3 |
| 20260503191828 | 27 | 141 | 8.0 | 19.3 | 0.00 | 0.00 | 0.00 | 28 | 1017.3 |
| 20260503191304 | 27 | 170 | 6.4 | 16.1 | 0.00 | 0.00 | 0.00 | 32 | 1017.5 |
| 20260503190734 | 28 | 261 | 4.8 | 12.9 | 0.00 | 0.00 | 0.00 | 31 | 1017.5 |
| 20260503190454 | 27 | 238 | 8.0 | 19.3 | 0.00 | 0.00 | 0.00 | 32 | 1017.6 |
| 20260503185707 | 27 | 248 | 9.7 | 19.3 | 0.00 | 0.00 | 0.00 | 31 | 1017.6 |
| 20260503185138 | 27 | 159 | 6.4 | 17.7 | 0.00 | 0.00 | 0.00 | 32 | 1017.6 |
| 20260503184639 | 27 | 155 | 6.4 | 17.7 | 0.00 | 0.00 | 0.00 | 35 | 1017.7 |
| 20260503184109 | 27 | 139 | 6.4 | 17.7 | 0.00 | 0.00 | 0.00 | 32 | 1017.8 |
| 20260503183609 | 27 | 221 | 4.8 | 17.7 | 0.00 | 0.00 | 0.00 | 33 | 1017.8 |
| 20260503183259 | 27 | 269 | 8.0 | 19.3 | 0.00 | 0.00 | 0.00 | 33 | 1018.0 |
| 20260503182538 | 27 | 150 | 9.7 | 19.3 | 0.00 | 0.00 | 0.00 | 32 | 1018.2 |
| 20260503182012 | 27 | 249 | 6.4 | 16.1 | 0.00 | 0.00 | 0.00 | 34 | 1018.3 |
| 20260503181447 | 27 | 231 | 6.4 | 19.3 | 0.00 | 0.00 | 0.00 | 34 | 1018.5 |
| 20260503180918 | 26 | 257 | 6.4 | 19.3 | 0.00 | 0.00 | 0.00 | 32 | 1018.6 |
| 20260503180415 | 27 | 280 | 4.8 | 16.1 | 0.00 | 0.00 | 0.00 | 34 | 1018.7 |
| 20260503180111 | 26 | 250 | 6.4 | 22.5 | 0.00 | 0.00 | 0.00 | 37 | 1018.8 |
| 20260503175323 | 27 | 220 | 4.8 | 11.3 | 0.00 | 0.00 | 0.00 | 35 | 1018.9 |
| 20260503174801 | 26 | 119 | 6.4 | 17.7 | 0.00 | 0.00 | 0.00 | 34 | 1019.0 |
| 20260503174237 | 26 | 233 | 8.0 | 20.9 | 0.00 | 0.00 | 0.00 | 34 | 1019.0 |
| 20260503173735 | 26 | 239 | 8.0 | 20.9 | 0.00 | 0.00 | 0.00 | 36 | 1019.1 |
| 20260503173234 | 26 | 177 | 6.4 | 17.7 | 0.00 | 0.00 | 0.00 | 40 | 1019.3 |
| 20260503172954 | 26 | 181 | 6.4 | 17.7 | 0.00 | 0.00 | 0.00 | 36 | 1019.3 |
| 20260503172434 | 26 | 216 | 6.4 | 16.1 | 0.00 | 0.00 | 0.00 | 36 | 1019.4 |
| 20260503171642 | 26 | 193 | 6.4 | 16.1 | 0.00 | 0.00 | 0.00 | 37 | 1019.5 |
| 20260503171114 | 26 | 250 | 8.0 | 17.7 | 0.00 | 0.00 | 0.00 | 36 | 1019.5 |
| 20260503170617 | 26 | 231 | 6.4 | 17.7 | 0.00 | 0.00 | 0.00 | 37 | 1019.6 |
| 20260503150726 | 23 | 231 | 4.8 | 14.5 | 0.00 | 0.00 | 0.00 | 42 | 1020.0 |
| 20260503150204 | 22 | 304 | 4.8 | 12.9 | 0.00 | 0.00 | 0.00 | 44 | 1020.0 |